Location: Newark
(50.0306°N, 2.3272°E)
Time: 14:14:08
(UTC+00:00)

Transit 2A Rocket - Pass Details

Date: 13 December 2019
Orbit: 593 x 910 km, 66.7° (Epoch: 18 January)

Event Time Altitude Azimuth Distance (km) Brightness Sun altitude
Rises 21:02:00 0° 323° (NW) 2,843 - -48.5°
Reaches altitude 10° 21:05:47 10° 358° (N) 1,954 - -49.1°
Maximum altitude 21:07:19 12° 18° (NNE) 1,862 - -49.3°
Drops below altitude 10° 21:08:52 10° 39° (NE) 1,980 - -49.5°
Sets 21:12:47 0° 73° (ENE) 2,939 - -50.1°
